Weather History for Homer, AK

Change the Weather History Date:

Thursday, November 29, 2012

  Actual Average Record
Temperature  
Mean Temperature 19 °F -  
Max Temperature 26 °F 32 °F 48 °F (1976)
Min Temperature 12 °F 21 °F -5 °F (1990)
Degree Days  
Heating Degree Days 46    
Moisture  
Dew Point 3 °F    
Average Humidity 54    
Maximum Humidity 65    
Minimum Humidity 42    
Precipitation  
Precipitation 0.00 in - - ()
Sea Level Pressure  
Sea Level Pressure 29.55 in    
Wind  
Wind Speed 5 mph (NE)    
Max Wind Speed 8 mph    
Max Gust Speed -    
Visibility 10 miles    
Events      
Averages and records for this station are not official NWS values.
T = Trace of Precipitation, MM = Missing Value Source: NWS Daily Summary

Daily Weather History Graph

Daily Weather History Graph

Search for Another Location

Airport:

Trip Planner

Search our weather history database for the weather conditions in past years. The results will help you decide how hot, cold, wet, or windy it might be!

Date:

Astronomy

Nov. 29, 2012 Rise Set
Actual Time 9:35 AM AKST 4:13 PM AKST
Civil Twilight 8:42 AM AKST 5:05 PM AKST
Nautical Twilight 7:48 AM AKST 5:59 PM AKST
Astronomical Twilight 6:58 AM AKST 6:49 PM AKST
Moon 5:23 PM AKST (11/29) 10:32 AM AKST (11/29)
Length of Visible Light 8h 23m
Length of Day
6h 37m
Full, 99% of the Moon is Illuminated
Nov 29
Full
Dec 6
Last Quarter
Dec 12
New
Dec 19
First Quarter
Dec 28
Full

Hourly Weather History & Observations

Time (AKST) Temp. Windchill Dew Point Humidity Pressure Visibility Wind Dir Wind Speed Gust Speed Precip Events Conditions
12:53 AM 19.9 °F 12.1 °F 3.0 °F 48% 29.65 in 10.0 mi NE 5.8 mph - N/A   Clear
1:53 AM 18.0 °F 12.7 °F 3.0 °F 52% 29.63 in 10.0 mi North 3.5 mph - N/A   Clear
3:53 AM 14.0 °F 6.5 °F 1.0 °F 56% 29.61 in 10.0 mi NNE 4.6 mph - N/A   Clear
4:53 AM 12.9 °F 5.2 °F 1.9 °F 62% 29.60 in 10.0 mi NNE 4.6 mph - N/A   Clear
5:53 AM 15.1 °F 6.4 °F 1.9 °F 56% 29.59 in 10.0 mi NNE 5.8 mph - N/A   Clear
6:53 AM 19.9 °F 12.1 °F 3.9 °F 50% 29.58 in 10.0 mi ENE 5.8 mph - N/A   Clear
7:53 AM 12.9 °F 6.9 °F 3.0 °F 65% 29.57 in 10.0 mi North 3.5 mph - N/A   Clear
8:53 AM 14.0 °F 6.5 °F 1.0 °F 56% 29.57 in 10.0 mi NNE 4.6 mph - N/A   Clear
9:53 AM 12.0 °F 4.1 °F 1.9 °F 64% 29.56 in 10.0 mi North 4.6 mph - N/A   Clear
10:53 AM 17.1 °F 11.7 °F 1.0 °F 50% 29.55 in 10.0 mi NE 3.5 mph - N/A   Clear
11:53 AM 21.9 °F 17.2 °F 1.9 °F 42% 29.54 in 10.0 mi ENE 3.5 mph - N/A   Clear
12:53 PM 25.0 °F 18.1 °F 7.0 °F 46% 29.52 in 10.0 mi ENE 5.8 mph - N/A   Clear
1:53 PM 26.1 °F 19.4 °F 8.1 °F 47% 29.51 in 10.0 mi ENE 5.8 mph - N/A   Clear
2:53 PM 25.0 °F 16.3 °F 9.0 °F 51% 29.49 in 10.0 mi East 8.1 mph - N/A   Clear
3:53 PM 25.0 °F 20.7 °F 6.1 °F 45% 29.49 in 10.0 mi ENE 3.5 mph - N/A   Clear
4:53 PM 19.9 °F 13.4 °F 7.0 °F 57% 29.50 in 10.0 mi NNE 4.6 mph - N/A   Clear
5:53 PM 16.0 °F - 3.9 °F 59% 29.50 in 10.0 mi Calm Calm - N/A   Clear
6:53 PM 12.9 °F 6.9 °F 3.0 °F 65% 29.50 in 10.0 mi North 3.5 mph - N/A   Clear
7:53 PM 16.0 °F 7.4 °F 3.9 °F 59% 29.51 in 10.0 mi NNE 5.8 mph - N/A   Clear
8:53 PM 18.0 °F 12.7 °F 3.0 °F 52% 29.52 in 10.0 mi NNE 3.5 mph - N/A   Clear
9:53 PM 18.0 °F 12.7 °F 1.0 °F 48% 29.53 in 10.0 mi NNE 3.5 mph - N/A   Clear
10:53 PM 16.0 °F 10.4 °F 1.0 °F 52% 29.55 in 10.0 mi NE 3.5 mph - N/A   Clear
11:53 PM 14.0 °F 8.2 °F 1.0 °F 56% 29.57 in 10.0 mi North 3.5 mph - N/A   Clear